Flag for Kazakhstan Weather past 2 weeks in Almaty, Kazakhstan

Now
54 °F

Passing clouds.


Feels Like: 53 °F
Forecast: 52 / 73 °F
Wind: 3 mph from Southwest

Location: Almaty Airport

Current Time: Sep 23, 2014 at 1:03:52 AM

Latest Report: Sep 23, 2014 at 12:30 AM


Visibility: N/A

Pressure: 30.01 "Hg

Humidity: 54%

Dew point: 37 °F

Location of AlmatyLocation

Historic Weather in Almaty — Graph

°F

Almaty temperature yesterday

Maximum temperature yesterday: 70 °F (at 4:00 PM)
Minimum temperature yesterday: 39 °F (at 6:00 AM)
Average temperature yesterday: 56 °F

Past Weeks' High & Low Weather Summary

 TemperatureHumidityPressure
High91 °F (Sep 18, 2:00 PM)88% (Sep 16, 2:00 AM)30.45 "Hg (Sep 16, 2:00 AM)
Low36 °F (Sep 12, 6:30 AM)7% (Sep 9, 2:00 PM)29.68 "Hg (Sep 18, 5:00 AM)
Average59 °F40%30.04 "Hg
* Reported Sep 7 11:00 PM — Sep 22 11:30 PM, Almaty, Weather by CustomWeather, © 2014

Note: Actual official high and low records may vary slightly from our data, if they occured in-between our weather recording intervals... More about our weather records

Advertising

Almaty weather history for previous 24 hours

 ConditionsComfort  
Time TempWeatherWind HumidityBarometerVisibility
11:30 PM
Sep 22
54 °FPassing clouds.3 mph58%30.01 "HgN/A
11:00 PM54 °FPassing clouds.3 mph54%30.01 "HgN/A
10:30 PM55 °FPassing clouds.3 mph51%30.01 "HgN/A
10:00 PM55 °FPassing clouds.1 mph51%30.04 "HgN/A
9:30 PM55 °FPassing clouds.3 mph51%30.04 "HgN/A
9:00 PM57 °FPartly cloudy.3 mph44%30.04 "HgN/A
8:30 PM59 °FPartly cloudy.3 mph42%30.04 "HgN/A
8:00 PM59 °FMostly cloudy.6 mph45%30.04 "Hg1 mi
7:30 PM61 °FFog.1 mph42%30.04 "Hg2 mi
7:00 PM63 °FMostly cloudy.3 mph37%30.04 "HgN/A
6:30 PM64 °FPartly cloudy.1 mph32%30.04 "HgN/A
6:00 PM68 °FPartly cloudy.3 mph23%30.04 "HgN/A
5:30 PM68 °FBroken clouds.1 mph23%30.01 "HgN/A
5:00 PM68 °FBroken clouds.1 mph23%30.01 "HgN/A
4:30 PM70 °FBroken clouds.3 mph21%30.01 "HgN/A
4:00 PM70 °FBroken clouds.3 mph20%30.01 "HgN/A
3:30 PM68 °FBroken clouds.6 mph21%30.01 "HgN/A
3:00 PM68 °FBroken clouds.6 mph21%30.01 "HgN/A
2:30 PM68 °FBroken clouds.6 mph21%30.01 "HgN/A
2:00 PM68 °FBroken clouds.6 mph21%30.01 "HgN/A
1:30 PM68 °FScattered clouds.8 mph20%30.04 "HgN/A
1:00 PM68 °FPartly sunny.6 mph18%30.04 "HgN/A
12:30 PM68 °FPartly sunny.8 mph18%30.04 "HgN/A
12:00 PM64 °FPartly sunny.6 mph22%30.04 "HgN/A
11:30 AM64 °FPartly sunny.8 mph21%30.07 "HgN/A
11:00 AM63 °FPartly sunny.6 mph24%30.07 "HgN/A
10:30 AM61 °FPartly sunny.3 mph27%30.07 "HgN/A
10:00 AM59 °FPartly sunny.1 mph29%30.07 "HgN/A
9:30 AM57 °FPartly sunny.1 mph33%30.09 "HgN/A
9:00 AM55 °FScattered clouds.1 mph36%30.07 "HgN/A
8:30 AM52 °FScattered clouds.1 mph41%30.07 "HgN/A
8:00 AM48 °FClear.1 mph58%30.09 "HgN/A
7:30 AM43 °FClear.3 mph71%30.09 "HgN/A
7:00 AM41 °FClear.1 mph70%30.09 "HgN/A
6:30 AM39 °FClear.1 mph75%30.09 "HgN/A
6:00 AM39 °FClear.1 mph75%30.09 "HgN/A
5:30 AM41 °FClear.3 mph76%30.09 "HgN/A
5:00 AM41 °FClear.3 mph76%30.09 "HgN/A
4:30 AM43 °FPassing clouds.6 mph71%30.09 "HgN/A
4:00 AM43 °FPassing clouds.3 mph71%30.09 "HgN/A
3:30 AM43 °FPassing clouds.3 mph71%30.09 "HgN/A
3:00 AM43 °FPassing clouds.3 mph71%30.09 "HgN/A
2:30 AM45 °FPassing clouds.3 mph71%30.09 "HgN/A
2:00 AM46 °FPassing clouds.6 mph71%30.09 "HgN/A
1:30 AM46 °FPassing clouds.3 mph71%30.12 "HgN/A
1:00 AM48 °FPartly cloudy.3 mph71%30.12 "Hg2 mi
Weather by CustomWeather, © 2014

See weather overviewHow to use our weather pages